EN

Hourly Weather Socki

Today, 20 October, Tuesday

Time Temperature Precipitation Wind Pressure Humidity
00:00 +3°C° 0 mm 3 mps 751 mmHg 88%
01:00 +3°C° 0 mm 3 mps 751 mmHg 89%
02:00 +3°C° 0 mm 3 mps 751 mmHg 90%
03:00 +2°C° 0 mm 3 mps 751 mmHg 91%
04:00 +3°C° 0 mm 2 mps 751 mmHg 91%
05:00 +3°C° 0 mm 2 mps 751 mmHg 91%
06:00 +4°C° 0 mm 2 mps 751 mmHg 90%
07:00 +4°C° 0 mm 2 mps 752 mmHg 89%
08:00 +5°C° 0 mm 2 mps 752 mmHg 84%
09:00 +6°C° 0 mm 2 mps 752 mmHg 78%
10:00 +8°C° 0 mm 2 mps 752 mmHg 73%
11:00 +8°C° 0 mm 3 mps 752 mmHg 70%
12:00 +9°C° 0 mm 3 mps 752 mmHg 66%
13:00 +10°C° 0 mm 3 mps 751 mmHg 63%
14:00 +10°C° 0 mm 3 mps 751 mmHg 67%
15:00 +10°C° 0 mm 4 mps 750 mmHg 70%
16:00 +8°C° 0 mm 4 mps 749 mmHg 74%
17:00 +8°C° 0 mm 4 mps 749 mmHg 75%
18:00 +8°C° 0 mm 5 mps 749 mmHg 77%
19:00 +7°C° 0 mm 5 mps 748 mmHg 79%
20:00 +7°C° 0 mm 5 mps 748 mmHg 80%
21:00 +7°C° 0 mm 5 mps 747 mmHg 81%
22:00 +7°C° 0 mm 5 mps 747 mmHg 83%
23:00 +7°C° 0 mm 5 mps 747 mmHg 82%

Tomorrow, 21 October, Wednesday

Time Temperature Precipitation Wind Pressure Humidity
00:00 +7°C° 0 mm 5 mps 747 mmHg 81%
01:00 +7°C° 0 mm 5 mps 747 mmHg 80%
02:00 +7°C° 0 mm 5 mps 746 mmHg 78%
03:00 +7°C° 0 mm 5 mps 746 mmHg 76%
04:00 +7°C° 0 mm 5 mps 745 mmHg 74%
05:00 +7°C° 0 mm 5 mps 745 mmHg 73%
06:00 +7°C° 0 mm 5 mps 745 mmHg 71%
07:00 +8°C° 0 mm 6 mps 745 mmHg 70%
08:00 +8°C° 0 mm 6 mps 745 mmHg 68%
09:00 +9°C° 0 mm 6 mps 745 mmHg 67%
10:00 +10°C° 0 mm 6 mps 745 mmHg 65%
11:00 +10°C° 0 mm 5 mps 745 mmHg 65%
12:00 +11°C° 0 mm 4 mps 745 mmHg 65%
13:00 +11°C° 0 mm 4 mps 745 mmHg 65%
14:00 +11°C° 0 mm 3 mps 745 mmHg 66%
15:00 +11°C° 0 mm 3 mps 744 mmHg 67%
16:00 +11°C° 0 mm 3 mps 744 mmHg 68%
17:00 +11°C° 0 mm 3 mps 744 mmHg 68%
18:00 +11°C° 0 mm 3 mps 744 mmHg 68%
19:00 +11°C° 0 mm 4 mps 745 mmHg 68%
20:00 +10°C° 0 mm 4 mps 744 mmHg 70%
21:00 +10°C° 0 mm 4 mps 744 mmHg 72%
22:00 +8°C° 0 mm 4 mps 744 mmHg 75%
23:00 +8°C° 0 mm 4 mps 744 mmHg 75%

Day after tomorrow, 22 October, Thursday

Time Temperature Precipitation Wind Pressure Humidity
00:00 +8°C° 0 mm 5 mps 745 mmHg 76%
01:00 +8°C° 0 mm 5 mps 745 mmHg 77%
02:00 +9°C° 0 mm 5 mps 744 mmHg 78%
03:00 +9°C° 0 mm 5 mps 744 mmHg 79%
04:00 +9°C° 0 mm 5 mps 744 mmHg 79%
05:00 +9°C° 0 mm 5 mps 744 mmHg 80%
06:00 +9°C° 0 mm 5 mps 744 mmHg 81%
07:00 +9°C° 0 mm 5 mps 744 mmHg 83%
08:00 +10°C° 0 mm 5 mps 745 mmHg 78%
09:00 +11°C° 0 mm 6 mps 745 mmHg 74%
10:00 +14°C° 0 mm 6 mps 745 mmHg 69%
11:00 +15°C° 0 mm 5 mps 745 mmHg 67%
12:00 +16°C° 0 mm 5 mps 745 mmHg 65%
13:00 +17°C° 0 mm 5 mps 745 mmHg 62%
14:00 +17°C° 0 mm 4 mps 745 mmHg 67%
15:00 +15°C° 0 mm 4 mps 745 mmHg 71%
16:00 +14°C° 0 mm 3 mps 745 mmHg 75%
17:00 +14°C° 0 mm 3 mps 745 mmHg 77%
18:00 +13°C° 0 mm 3 mps 745 mmHg 78%
19:00 +13°C° 0 mm 3 mps 745 mmHg 80%
20:00 +13°C° 0 mm 3 mps 745 mmHg 80%
21:00 +13°C° 0 mm 3 mps 745 mmHg 81%
22:00 +12°C° 0 mm 3 mps 745 mmHg 81%
23:00 +12°C° 0 mm 3 mps 745 mmHg 81%

23 October, Friday

Time Temperature Precipitation Wind Pressure Humidity
00:00 +12°C° 0 mm 3 mps 745 mmHg 81%
01:00 +12°C° 0 mm 3 mps 745 mmHg 81%
02:00 +12°C° 0 mm 3 mps 744 mmHg 80%
03:00 +12°C° 0 mm 4 mps 744 mmHg 79%
04:00 +12°C° 0 mm 4 mps 744 mmHg 78%
05:00 +12°C° 0 mm 4 mps 744 mmHg 79%
06:00 +12°C° 0 mm 5 mps 743 mmHg 80%
07:00 +12°C° 0 mm 5 mps 743 mmHg 80%
08:00 +13°C° 0 mm 5 mps 743 mmHg 77%
09:00 +13°C° 0 mm 5 mps 743 mmHg 74%
10:00 +14°C° 0 mm 5 mps 743 mmHg 71%
11:00 +15°C° 0 mm 5 mps 743 mmHg 70%
12:00 +15°C° 0 mm 5 mps 743 mmHg 70%
13:00 +16°C° 0 mm 5 mps 742 mmHg 70%
14:00 +15°C° 0 mm 4 mps 742 mmHg 73%
15:00 +15°C° 0 mm 4 mps 742 mmHg 77%
16:00 +16°C° 0 mm 3 mps 742 mmHg 80%
17:00 +14°C° 0 mm 3 mps 743 mmHg 82%
18:00 +14°C° 0 mm 3 mps 743 mmHg 84%
19:00 +13°C° 0 mm 3 mps 743 mmHg 86%
20:00 +14°C° 0 mm 2 mps 743 mmHg 88%
21:00 +13°C° 0 mm 2 mps 743 mmHg 90%
22:00 +12°C° 0 mm 2 mps 743 mmHg 92%
23:00 +12°C° 0 mm 2 mps 743 mmHg 93%

24 October, Saturday

Time Temperature Precipitation Wind Pressure Humidity
00:00 +12°C° 0 mm 2 mps 742 mmHg 93%
01:00 +12°C° 0 mm 2 mps 742 mmHg 93%
02:00 +12°C° 0.1 mm 2 mps 742 mmHg 93%
03:00 +12°C° 0.1 mm 3 mps 742 mmHg 93%
04:00 +12°C° 0.1 mm 3 mps 741 mmHg 93%
05:00 +12°C° 0.5 mm 4 mps 741 mmHg 93%
06:00 +12°C° 0.5 mm 5 mps 740 mmHg 94%
07:00 +10°C° 0.5 mm 5 mps 740 mmHg 94%
08:00 +12°C° 1.5 mm 5 mps 740 mmHg 94%
09:00 +12°C° 1.5 mm 5 mps 740 mmHg 94%
10:00 +11°C° 1.5 mm 6 mps 739 mmHg 94%
11:00 +11°C° 0.9 mm 6 mps 740 mmHg 91%
12:00 +11°C° 0.9 mm 7 mps 740 mmHg 87%
13:00 +11°C° 0.9 mm 8 mps 740 mmHg 84%
14:00 +11°C° 0.4 mm 8 mps 740 mmHg 82%
15:00 +10°C° 0.4 mm 8 mps 741 mmHg 80%
16:00 +10°C° 0.4 mm 8 mps 741 mmHg 78%
17:00 +9°C° 0 mm 8 mps 742 mmHg 78%
18:00 +8°C° 0 mm 7 mps 743 mmHg 78%
19:00 +8°C° 0 mm 7 mps 743 mmHg 79%
20:00 +6°C° 0 mm 7 mps 744 mmHg 78%
21:00 +6°C° 0 mm 7 mps 744 mmHg 78%
22:00 +5°C° 0 mm 6 mps 745 mmHg 78%
23:00 +5°C° 0 mm 6 mps 745 mmHg 80%

25 October, Sunday

Time Temperature Precipitation Wind Pressure Humidity
00:00 +5°C° 0 mm 6 mps 746 mmHg 82%
01:00 +5°C° 0 mm 5 mps 746 mmHg 84%
02:00 +5°C° 0 mm 5 mps 746 mmHg 86%
03:00 +5°C° 0 mm 4 mps 747 mmHg 87%
04:00 +4°C° 0 mm 4 mps 747 mmHg 89%
05:00 +4°C° 0 mm 3 mps 747 mmHg 91%
06:00 +4°C° 0 mm 3 mps 747 mmHg 92%
07:00 +4°C° 0 mm 3 mps 747 mmHg 93%
08:00 +5°C° 0 mm 3 mps 748 mmHg 87%
09:00 +8°C° 0 mm 3 mps 748 mmHg 81%
10:00 +9°C° 0 mm 3 mps 748 mmHg 75%
11:00 +10°C° 0 mm 3 mps 748 mmHg 70%
12:00 +10°C° 0 mm 2 mps 748 mmHg 65%
13:00 +12°C° 0 mm 2 mps 748 mmHg 60%
14:00 +10°C° 0 mm 2 mps 747 mmHg 63%
15:00 +11°C° 0 mm 1 mps 747 mmHg 66%
16:00 +10°C° 0 mm 1 mps 747 mmHg 69%
17:00 +8°C° 0 mm 2 mps 747 mmHg 72%
18:00 +8°C° 0 mm 2 mps 747 mmHg 74%
19:00 +7°C° 0 mm 3 mps 747 mmHg 77%
20:00 +7°C° 0 mm 3 mps 747 mmHg 78%
21:00 +7°C° 0 mm 3 mps 747 mmHg 80%
22:00 +5°C° 0 mm 3 mps 747 mmHg 81%
23:00 +5°C° 0 mm 3 mps 747 mmHg 82%

26 October, Monday

Time Temperature Precipitation Wind Pressure Humidity
00:00 +5°C° 0 mm 4 mps 747 mmHg 83%
01:00 +5°C° 0 mm 4 mps 747 mmHg 84%
02:00 +4°C° 0 mm 4 mps 746 mmHg 85%
03:00 +4°C° 0 mm 4 mps 746 mmHg 85%
04:00 +3°C° 0 mm 5 mps 746 mmHg 86%
05:00 +3°C° 0 mm 5 mps 746 mmHg 85%
06:00 +3°C° 0 mm 5 mps 746 mmHg 85%
07:00 +3°C° 0 mm 6 mps 746 mmHg 85%
08:00 +4°C° 0 mm 6 mps 745 mmHg 79%
09:00 +7°C° 0 mm 6 mps 745 mmHg 73%
10:00 +8°C° 0 mm 7 mps 745 mmHg 67%
11:00 +9°C° 0 mm 6 mps 745 mmHg 65%
12:00 +10°C° 0 mm 6 mps 745 mmHg 64%
13:00 +11°C° 0 mm 6 mps 744 mmHg 63%
14:00 +10°C° 0 mm 5 mps 744 mmHg 66%
15:00 +10°C° 0 mm 5 mps 744 mmHg 70%
16:00 +10°C° 0 mm 4 mps 744 mmHg 74%
17:00 +8°C° 0 mm 5 mps 744 mmHg 75%
18:00 +8°C° 0 mm 5 mps 744 mmHg 77%
19:00 +8°C° 0 mm 5 mps 744 mmHg 78%
20:00 +8°C° 0 mm 5 mps 744 mmHg 78%
21:00 +7°C° 0 mm 5 mps 744 mmHg 77%
22:00 +7°C° 0 mm 5 mps 744 mmHg 76%
23:00 +7°C° 0 mm 5 mps 744 mmHg 75%
Show more

We Need Your Consent

Meteoprog and our Service Providers may store and access personal data such as cookies, device identifiers or other similar technologies on your device and process such data to personalise content and ads, as well as provide social media features and to analyse the traffic.

  • Store and/or access information on your device

    Cookies, device identifiers or other information can be stored or accessed on your device for the purposes indicated above.

  • Personalised ads and content, ad and content measurement, audience insights, and products development

    Ads and content can be personalised based on a profile. More data can be added to better personalise ads and content. Ad and content performance can be measured. Insights about the audience who saw the ads and content can be derived. Such data can be used to develop or improve user’s experience, systems and software.

By clicking ‘I Agree’ you will allow the use of indicated cookies, device identifiers, web beacons or other similar technologies. Your settings can be changed in the browser on your device.

For certain purposes, legitimate interests may be relied on, rather than consent. You can read more about this in our Privacy and Cookie Policy.